�������l�o���
Date,Time,MP-1(��Sv/h),MP-2(��Sv/h),MP-3(��Sv/h),MP-4(��Sv/h),MP-5(��Sv/h),MP-6(��Sv/h),MP-7(��Sv/h),MP-8(��Sv/h),����,����(m/s),���J
2019/01/17,00:00,0.792,1.164,0.825,1.515,1.083,0.452,0.799,0.758,�k��,5.4,��
2019/01/17,00:10,0.792,1.176,0.825,1.517,1.081,0.452,0.802,0.757,�k�k��,3.4,��
2019/01/17,00:20,0.792,1.180,0.824,1.514,1.080,0.453,0.801,0.757,�k�k��,3.8,��
2019/01/17,00:30,0.791,1.183,0.826,1.514,1.082,0.452,0.802,0.756,�k�k��,4.0,��
2019/01/17,00:40,0.792,1.179,0.826,1.517,1.084,0.452,0.802,0.757,�k�k��,4.0,��
2019/01/17,00:50,0.791,1.181,0.824,1.514,1.083,0.453,0.801,0.757,�k,3.7,��
2019/01/17,01:00,0.792,1.178,0.824,1.515,1.081,0.453,0.801,0.758,�k�k��,3.3,��
2019/01/17,01:10,0.791,1.179,0.824,1.512,1.081,0.450,0.801,0.757,�k�k��,4.4,��
2019/01/17,01:20,0.790,1.181,0.824,1.512,1.082,0.451,0.800,0.756,�k��,4.0,��
2019/01/17,01:30,0.789,1.180,0.825,1.512,1.081,0.452,0.801,0.759,�k�k��,4.2,��
2019/01/17,01:40,0.792,1.182,0.825,1.513,1.079,0.452,0.801,0.757,�k,5.1,��
2019/01/17,01:50,0.791,1.178,0.821,1.515,1.081,0.454,0.802,0.756,�k,3.9,��
2019/01/17,02:00,0.792,1.181,0.824,1.513,1.080,0.453,0.800,0.758,�k�k��,4.7,��
2019/01/17,02:10,0.792,1.179,0.826,1.512,1.083,0.452,0.800,0.758,�k��,5.0,��
2019/01/17,02:20,0.790,1.179,0.824,1.513,1.083,0.452,0.801,0.757,�k��,4.2,��
2019/01/17,02:30,0.790,1.179,0.825,1.513,1.077,0.452,0.801,0.757,�k�k��,5.0,��
2019/01/17,02:40,0.791,1.179,0.829,1.516,1.082,0.452,0.800,0.757,�k�k��,5.4,��
2019/01/17,02:50,0.791,1.180,0.828,1.515,1.082,0.452,0.801,0.755,�k��,5.4,��
2019/01/17,03:00,0.791,1.180,0.830,1.516,1.080,0.451,0.798,0.757,�k��,4.5,��
2019/01/17,03:10,0.791,1.179,0.827,1.514,1.079,0.451,0.800,0.758,�k��,6.2,��
2019/01/17,03:20,0.791,1.179,0.829,1.514,1.082,0.452,0.802,0.757,�k��,6.9,��
2019/01/17,03:30,0.790,1.179,0.830,1.515,1.080,0.451,0.802,0.756,���k��,7.0,��
2019/01/17,03:40,0.791,1.177,0.830,1.517,1.080,0.452,0.800,0.758,���k��,6.0,��
2019/01/17,03:50,0.790,1.182,0.830,1.515,1.080,0.451,0.802,0.756,���k��,5.9,��
2019/01/17,04:00,0.791,1.180,0.829,1.516,1.080,0.452,0.801,0.757,�k��,6.0,��
2019/01/17,04:10,0.792,1.180,0.831,1.516,1.081,0.451,0.801,0.757,�k��,3.7,��
2019/01/17,04:20,0.788,1.181,0.830,1.515,1.082,0.453,0.801,0.756,�k��,3.4,��
2019/01/17,04:30,0.792,1.177,0.829,1.513,1.081,0.452,0.801,0.757,���k��,4.5,��
2019/01/17,04:40,0.791,1.179,0.830,1.515,1.081,0.453,0.801,0.755,���k��,4.9,��
2019/01/17,04:50,0.790,1.180,0.830,1.517,1.080,0.454,0.800,0.757,�k��,6.4,��
2019/01/17,05:00,0.790,1.179,0.832,1.516,1.080,0.452,0.800,0.756,���k��,4.9,��
2019/01/17,05:10,0.791,1.177,0.831,1.515,1.081,0.451,0.800,0.757,���k��,4.0,��
2019/01/17,05:20,0.791,1.181,0.831,1.515,1.081,0.453,0.800,0.757,�k��,3.9,��
2019/01/17,05:30,0.790,1.179,0.832,1.515,1.080,0.452,0.801,0.758,�k��,3.8,��
2019/01/17,05:40,0.790,1.180,0.830,1.515,1.078,0.452,0.801,0.757,���k��,2.6,��
2019/01/17,05:50,0.792,1.179,0.829,1.516,1.079,0.452,0.802,0.757,��,3.3,��
2019/01/17,06:00,0.792,1.179,0.828,1.513,1.079,0.451,0.801,0.758,��,2.6,��
2019/01/17,06:10,0.792,1.180,0.830,1.514,1.081,0.453,0.802,0.756,��,3.9,��
2019/01/17,06:20,0.791,1.179,0.830,1.512,1.078,0.454,0.801,0.758,�쐼,0.9,��
2019/01/17,06:30,0.791,1.180,0.831,1.513,1.081,0.453,0.800,0.757,��,2.5,��
2019/01/17,06:40,0.792,1.179,0.828,1.515,1.078,0.453,0.801,0.756,��쓌,4.1,��
2019/01/17,06:50,0.793,1.177,0.830,1.515,1.080,0.451,0.804,0.757,��쓌,6.3,��
2019/01/17,07:00,0.791,1.179,0.830,1.516,1.080,0.454,0.801,0.758,��쓌,8.6,��
2019/01/17,07:10,0.793,1.179,0.829,1.513,1.079,0.451,0.802,0.759,��쓌,10.3,��
2019/01/17,07:20,0.793,1.179,0.831,1.518,1.078,0.452,0.802,0.757,��쓌,10.0,��
2019/01/17,07:30,0.793,1.175,0.830,1.517,1.078,0.453,0.803,0.756,��,10.0,��
2019/01/17,07:40,0.793,1.177,0.830,1.513,1.078,0.453,0.803,0.757,��,9.7,��
2019/01/17,07:50,0.793,1.180,0.831,1.516,1.079,0.455,0.802,0.757,��,9.5,��
2019/01/17,08:00,0.794,1.180,0.831,1.517,1.081,0.454,0.802,0.758,��,9.5,��
2019/01/17,08:10,0.792,1.179,0.831,1.517,1.080,0.454,0.803,0.759,��,7.8,��
2019/01/17,08:20,0.795,1.179,0.831,1.517,1.082,0.455,0.801,0.757,��,7.9,��
2019/01/17,08:30,0.793,1.176,0.831,1.513,1.080,0.452,0.803,0.758,��,8.2,��
2019/01/17,08:40,0.793,1.179,0.830,1.516,1.081,0.455,0.803,0.757,��,8.2,��
2019/01/17,08:50,0.793,1.179,0.831,1.515,1.081,0.455,0.804,0.758,��,8.3,��
2019/01/17,09:00,0.793,1.182,0.831,1.515,1.081,0.454,0.803,0.757,��,8.8,��
2019/01/17,09:10,0.796,1.181,0.832,1.516,1.081,0.455,0.805,0.759,��,8.9,��
2019/01/17,09:20,0.795,1.178,0.831,1.515,1.082,0.455,0.805,0.759,��,7.9,��
2019/01/17,09:30,0.795,1.181,0.831,1.516,1.084,0.455,0.804,0.759,��,6.7,��
2019/01/17,09:40,0.796,1.176,0.830,1.516,1.079,0.455,0.804,0.759,��,7.9,��
2019/01/17,09:50,0.799,1.179,0.832,1.518,1.081,0.455,0.803,0.758,��,6.4,��
2019/01/17,10:00,0.800,1.181,0.833,1.516,1.084,0.457,0.802,0.761,��쐼,5.3,��
2019/01/17,10:10,0.797,1.179,0.831,1.517,1.084,0.456,0.805,0.759,��,4.2,��
2019/01/17,10:20,0.799,1.177,0.833,1.519,1.084,0.457,0.803,0.758,�쐼,5.2,��
2019/01/17,10:30,0.793,1.183,0.833,1.515,1.083,0.456,0.805,0.758,��쐼,6.1,��
2019/01/17,10:40,0.797,1.178,0.834,1.519,1.084,0.457,0.803,0.757,��쐼,7.9,��
2019/01/17,10:50,0.798,1.190,0.831,1.516,1.084,0.455,0.801,0.758,�쐼,8.1,��
2019/01/17,11:00,0.796,1.185,0.832,1.517,1.084,0.457,0.801,0.760,�쐼,6.3,��
2019/01/17,11:10,0.798,1.185,0.832,1.518,1.075,0.457,0.804,0.758,���쐼,6.0,��
2019/01/17,11:20,0.797,1.182,0.833,1.517,1.084,0.455,0.804,0.761,���쐼,6.7,��
2019/01/17,11:30,0.796,1.180,0.832,1.514,1.086,0.455,0.803,0.760,��,6.8,��
2019/01/17,11:40,0.795,1.182,0.830,1.516,1.087,0.456,0.801,0.761,��,7.7,��
2019/01/17,11:50,0.797,1.181,0.831,1.517,1.085,0.458,0.803,0.759,���쐼,8.2,��
2019/01/17,12:00,0.798,1.182,0.833,1.517,1.085,0.456,0.803,0.759,���쐼,6.7,��
2019/01/17,12:10,0.799,1.183,0.831,1.519,1.087,0.458,0.802,0.761,���쐼,7.9,��
2019/01/17,12:20,0.797,1.184,0.834,1.518,1.087,0.458,0.804,0.760,���쐼,7.0,��
2019/01/17,12:30,0.797,1.181,0.836,1.518,1.086,0.457,0.804,0.760,��,6.6,��
2019/01/17,12:40,0.798,1.179,0.834,1.517,1.088,0.459,0.802,0.761,��,7.9,��
2019/01/17,12:50,0.797,1.177,0.834,1.520,1.083,0.459,0.803,0.762,��,8.9,��
2019/01/17,13:00,0.797,1.175,0.834,1.522,1.085,0.457,0.804,0.761,��,8.1,��
2019/01/17,13:10,0.797,1.177,0.832,1.521,1.085,0.459,0.803,0.762,��,6.9,��
2019/01/17,13:20,0.798,1.175,0.831,1.520,1.083,0.457,0.802,0.760,�쐼,5.6,��
2019/01/17,13:30,0.795,1.177,0.834,1.519,1.083,0.458,0.806,0.759,���쐼,8.2,��
2019/01/17,13:40,0.794,1.171,0.833,1.522,1.087,0.458,0.805,0.757,��,10.2,��
2019/01/17,13:50,0.795,1.176,0.834,1.517,1.087,0.457,0.805,0.757,��,8.7,��
2019/01/17,14:00,0.796,1.176,0.834,1.521,1.085,0.456,0.805,0.758,���쐼,6.9,��
2019/01/17,14:10,0.795,1.175,0.832,1.518,1.086,0.458,0.802,0.758,���쐼,8.8,��
2019/01/17,14:20,0.796,1.172,0.833,1.518,1.084,0.456,0.803,0.758,���쐼,9.3,��
2019/01/17,14:30,0.796,1.176,0.832,1.520,1.086,0.456,0.803,0.758,��,7.6,��
2019/01/17,14:40,0.794,1.175,0.833,1.518,1.087,0.459,0.805,0.758,���k��,6.0,��
2019/01/17,14:50,0.796,1.177,0.833,1.519,1.085,0.456,0.807,0.757,��,4.4,��
2019/01/17,15:00,0.796,1.181,0.832,1.519,1.087,0.457,0.804,0.759,���k��,5.4,��
2019/01/17,15:10,0.797,1.178,0.834,1.519,1.085,0.458,0.804,0.761,���k��,6.1,��
2019/01/17,15:20,0.794,1.183,0.831,1.517,1.086,0.458,0.803,0.759,��,5.4,��
2019/01/17,15:30,0.795,1.182,0.831,1.519,1.086,0.455,0.805,0.760,��,4.9,��
2019/01/17,15:40,0.796,1.181,0.831,1.520,1.086,0.458,0.805,0.759,���k��,4.6,��
2019/01/17,15:50,0.794,1.183,0.830,1.521,1.084,0.456,0.806,0.759,���k��,4.0,��
2019/01/17,16:00,0.795,1.184,0.831,1.520,1.085,0.457,0.807,0.759,�k��,3.6,��
2019/01/17,16:10,0.796,1.183,0.834,1.520,1.083,0.456,0.807,0.757,���k��,2.6,��
2019/01/17,16:20,0.797,1.186,0.832,1.521,1.083,0.457,0.805,0.760,�k��,4.3,��
2019/01/17,16:30,0.796,1.183,0.831,1.517,1.085,0.457,0.806,0.758,�k�k��,3.5,��
2019/01/17,16:40,0.795,1.185,0.832,1.516,1.086,0.455,0.804,0.758,�k�k��,3.0,��
2019/01/17,16:50,0.795,1.184,0.834,1.520,1.085,0.456,0.804,0.759,�k,4.9,��
2019/01/17,17:00,0.794,1.185,0.832,1.516,1.085,0.455,0.805,0.759,�k,5.5,��
2019/01/17,17:10,0.795,1.183,0.833,1.521,1.085,0.456,0.804,0.758,�k�k��,5.1,��
2019/01/17,17:20,0.795,1.176,0.832,1.520,1.085,0.454,0.804,0.758,�k�k��,3.8,��
2019/01/17,17:30,0.794,1.168,0.831,1.519,1.085,0.454,0.804,0.757,�k,4.5,��
2019/01/17,17:40,0.792,1.181,0.832,1.516,1.085,0.455,0.803,0.761,�k,4.0,��
2019/01/17,17:50,0.796,1.179,0.833,1.519,1.086,0.454,0.804,0.759,�k,3.3,��
2019/01/17,18:00,0.793,1.173,0.831,1.516,1.083,0.454,0.803,0.758,�k�k��,3.0,��
2019/01/17,18:10,0.795,1.153,0.831,1.518,1.084,0.454,0.801,0.756,�k�k��,1.2,��
2019/01/17,18:20,0.795,1.158,0.825,1.518,1.083,0.455,0.803,0.758,�k��,1.2,��
2019/01/17,18:30,0.793,1.167,0.825,1.516,1.084,0.455,0.802,0.760,�k��,2.9,��
2019/01/17,18:40,0.790,1.161,0.824,1.516,1.082,0.455,0.802,0.759,���k��,3.7,��
2019/01/17,18:50,0.794,1.169,0.828,1.515,1.085,0.457,0.803,0.759,���k��,4.8,��
2019/01/17,19:00,0.792,1.172,0.827,1.517,1.084,0.456,0.802,0.759,���쐼,6.1,��
2019/01/17,19:10,0.793,1.171,0.824,1.516,1.084,0.455,0.804,0.758,��,6.1,��
2019/01/17,19:20,0.793,1.167,0.822,1.517,1.083,0.454,0.804,0.759,��,6.9,��
2019/01/17,19:30,0.793,1.167,0.823,1.515,1.082,0.455,0.804,0.760,��,7.6,��
2019/01/17,19:40,0.793,1.159,0.822,1.516,1.084,0.455,0.802,0.759,��,6.5,��
2019/01/17,19:50,0.795,1.159,0.825,1.516,1.086,0.456,0.802,0.758,��,6.8,��
2019/01/17,20:00,0.795,1.149,0.826,1.518,1.083,0.454,0.803,0.758,��,6.5,��
2019/01/17,20:10,0.792,1.141,0.825,1.520,1.084,0.455,0.803,0.758,��,7.3,��
2019/01/17,20:20,0.794,1.130,0.828,1.518,1.083,0.453,0.805,0.757,��,6.7,��
2019/01/17,20:30,0.795,1.131,0.826,1.517,1.084,0.455,0.806,0.757,��,6.4,��
2019/01/17,20:40,0.795,1.135,0.828,1.517,1.084,0.454,0.804,0.760,���k��,2.6,��
2019/01/17,20:50,0.793,1.157,0.828,1.516,1.084,0.455,0.803,0.759,���k��,3.0,��
2019/01/17,21:00,0.794,1.155,0.828,1.517,1.082,0.455,0.805,0.757,��,4.2,��
2019/01/17,21:10,0.794,1.153,0.830,1.517,1.084,0.455,0.803,0.760,���k��,2.3,��
2019/01/17,21:20,0.794,1.154,0.829,1.517,1.084,0.454,0.803,0.758,�k,3.0,��
2019/01/17,21:30,0.793,1.154,0.830,1.517,1.083,0.456,0.803,0.758,�k�k��,2.6,��
2019/01/17,21:40,0.794,1.159,0.830,1.518,1.081,0.456,0.803,0.759,�k��,2.8,��
2019/01/17,21:50,0.791,1.159,0.828,1.517,1.084,0.454,0.803,0.758,�k��,2.5,��
2019/01/17,22:00,0.794,1.164,0.829,1.518,1.085,0.455,0.803,0.759,���k��,2.0,��
2019/01/17,22:10,0.792,1.170,0.827,1.517,1.085,0.455,0.804,0.759,�k��,2.9,��
2019/01/17,22:20,0.793,1.173,0.829,1.517,1.085,0.454,0.804,0.758,�k��,3.6,��
2019/01/17,22:30,0.793,1.169,0.828,1.518,1.083,0.454,0.802,0.760,�k�k��,4.0,��
2019/01/17,22:40,0.790,1.173,0.828,1.515,1.085,0.454,0.802,0.758,�k,5.2,��
2019/01/17,22:50,0.794,1.171,0.829,1.515,1.086,0.455,0.804,0.759,�k�k��,6.3,��
2019/01/17,23:00,0.793,1.165,0.827,1.517,1.084,0.452,0.803,0.758,�k�k��,3.9,��
2019/01/17,23:10,0.794,1.170,0.827,1.520,1.085,0.456,0.804,0.759,�k��,6.9,��
2019/01/17,23:20,0.793,1.168,0.828,1.518,1.084,0.455,0.802,0.756,�k��,8.8,��
2019/01/17,23:30,0.793,1.162,0.827,1.518,1.083,0.455,0.804,0.759,�k��,5.9,��
2019/01/17,23:40,0.793,1.170,0.827,1.518,1.085,0.454,0.804,0.758,�k��,5.4,��
2019/01/17,23:50,0.792,1.162,0.826,1.515,1.084,0.453,0.803,0.759,�k��,9.9,��
